Weather History for KUNV - November, 2012

Change the Weather History Date:

Sunday, November 18, 2012

  Actual Average Record
Temperature  
Mean Temperature 37 °F -  
Max Temperature 48 °F 49 °F 69 °F (1928)
Min Temperature 26 °F 32 °F 11 °F (1959)
Degree Days  
Heating Degree Days 28    
Moisture  
Dew Point 27 °F    
Average Humidity 77    
Maximum Humidity 100    
Minimum Humidity 43    
Precipitation  
Precipitation 0.00 in - - ()
Sea Level Pressure  
Sea Level Pressure 30.56 in    
Wind  
Wind Speed 0 mph (ESE)    
Max Wind Speed 6 mph    
Max Gust Speed -    
Visibility 9 miles    
Events      
Averages and records for this station are not official NWS values.
T = Trace of Precipitation, MM = Missing Value Source: NWS Daily Summary

Daily Weather History Graph

Daily Weather History Graph

Search for Another Location

Airport or City:

Trip Planner

Search our weather history database for the weather conditions in past years. The results will help you decide how hot, cold, wet, or windy it might be!

Date:

Astronomy

Nov. 18, 2012 Rise Set
Actual Time 7:02 AM EST 4:50 PM EST
Civil Twilight 6:32 AM EST 5:20 PM EST
Nautical Twilight 5:59 AM EST 5:53 PM EST
Astronomical Twilight 5:26 AM EST 6:25 PM EST
Moon 11:27 AM EST (11/18) 10:08 PM EST (11/18)
Length of Visible Light 10h 47m
Length of Day
9h 47m
Waxing Crescent, 30% of the Moon is Illuminated
Nov 18
Waxing Crescent
Nov 20
First Quarter
Nov 28
Full
Dec 6
Last Quarter
Dec 13
New

Hourly Weather History & Observations

Time (EST) Temp. Windchill Dew Point Humidity Pressure Visibility Wind Dir Wind Speed Gust Speed Precip Events Conditions
12:15 AM 29.5 °F - 25.9 °F 86% 30.59 in 10.0 mi Calm Calm - N/A   Clear
12:35 AM 31.5 °F - 27.5 °F 85% 30.59 in 10.0 mi Calm Calm - N/A   Clear
12:55 AM 30.2 °F - 27.3 °F 89% 30.59 in 10.0 mi Calm Calm - N/A   Clear
1:15 AM 31.3 °F - 27.0 °F 84% 30.59 in 10.0 mi Calm Calm - N/A   Clear
1:35 AM 30.7 °F - 27.1 °F 86% 30.59 in 10.0 mi Calm Calm - N/A   Clear
1:55 AM 29.8 °F - 27.1 °F 90% 30.59 in 10.0 mi Calm Calm - N/A   Clear
2:15 AM 30.2 °F - 27.5 °F 90% 30.58 in 10.0 mi Calm Calm - N/A   Clear
2:35 AM 28.0 °F - 26.1 °F 92% 30.59 in 7.0 mi Calm Calm - N/A   Clear
2:55 AM 28.8 °F - 27.0 °F 93% 30.59 in 7.0 mi Calm Calm - N/A   Clear
3:15 AM 28.9 °F - 26.6 °F 91% 30.59 in 7.0 mi Calm Calm - N/A   Clear
3:35 AM 28.4 °F - 26.2 °F 92% 30.58 in 7.0 mi Calm Calm - N/A   Clear
3:55 AM 26.8 °F - 24.3 °F 90% 30.59 in 7.0 mi Calm Calm - N/A   Clear
4:15 AM 27.9 °F 24.0 °F 25.9 °F 92% 30.57 in 7.0 mi North 3.5 mph - N/A   Clear
4:35 AM 27.0 °F - 24.8 °F 92% 30.59 in 7.0 mi Calm Calm - N/A   Clear
5:53 AM 26.6 °F - 26.6 °F 100% 30.59 in 7.0 mi Calm Calm - N/A   Clear
6:53 AM 26.6 °F - 24.8 °F 93% 30.60 in 7.0 mi Calm Calm - N/A   Clear
7:53 AM 26.6 °F - 24.8 °F 93% 30.61 in 5.0 mi Calm Calm - N/A   Clear
8:53 AM 30.2 °F - 28.4 °F 93% 30.61 in 5.0 mi Calm Calm - N/A   Clear
9:53 AM 33.8 °F - 30.2 °F 87% 30.60 in 10.0 mi Calm Calm - N/A   Clear
10:53 AM 39.2 °F - 30.2 °F 70% 30.59 in 10.0 mi Calm Calm - N/A   Clear
11:53 AM 42.8 °F - 30.2 °F 61% 30.59 in 10.0 mi Calm Calm - N/A   Clear
1:53 PM 48.2 °F - 28.4 °F 46% 30.54 in 10.0 mi SE 5.8 mph - N/A   Clear
2:53 PM 48.2 °F - 26.6 °F 43% 30.52 in 10.0 mi SSE 1.2 mph - N/A   Clear
3:53 PM 46.4 °F 44.3 °F 26.6 °F 46% 30.52 in 10.0 mi ESE 4.6 mph - N/A   Clear
4:53 PM 44.6 °F 43.1 °F 26.6 °F 49% 30.52 in 10.0 mi SSE 3.5 mph - N/A   Clear
5:53 PM 42.8 °F - 26.6 °F 53% 30.52 in 10.0 mi Calm Calm - N/A   Clear
6:53 PM 39.2 °F - 26.6 °F 61% 30.53 in 10.0 mi Calm Calm - N/A   Clear
7:55 PM 39.2 °F - 26.6 °F 61% 30.53 in 10.0 mi Calm Calm - N/A   Clear
8:15 PM 39.4 °F - 27.9 °F 63% 30.53 in 10.0 mi Calm Calm - N/A   Clear
8:35 PM 37.4 °F - 27.9 °F 68% 30.54 in 7.0 mi Calm Calm - N/A   Clear
8:53 PM 35.6 °F - 26.6 °F 70% 30.53 in 10.0 mi Calm Calm - N/A   Clear
8:55 PM 38.1 °F - 28.4 °F 68% 30.53 in 10.0 mi Calm Calm - N/A   Clear
9:15 PM 37.0 °F - 28.2 °F 70% 30.53 in 10.0 mi Calm Calm - N/A   Clear
9:35 PM 37.9 °F 34.4 °F 29.3 °F 71% 30.53 in 10.0 mi East 4.6 mph - N/A   Clear
9:55 PM 37.9 °F - 29.5 °F 72% 30.52 in 10.0 mi Calm Calm - N/A   Clear
10:15 PM 36.5 °F - 29.3 °F 75% 30.52 in 10.0 mi Calm Calm - N/A   Clear
10:35 PM 34.7 °F - 28.6 °F 78% 30.51 in 10.0 mi Calm Calm - N/A   Clear
10:55 PM 35.1 °F - 28.8 °F 78% 30.51 in 10.0 mi Calm Calm - N/A   Clear
11:15 PM 33.1 °F - 27.9 °F 81% 30.50 in 10.0 mi Calm Calm - N/A   Clear
11:35 PM 32.4 °F - 27.9 °F 83% 30.50 in 10.0 mi Calm Calm - N/A   Clear
11:55 PM 33.1 °F - 28.6 °F 84% 30.50 in 10.0 mi Calm Calm - N/A   Clear